Weather History for Valentine, NE

Change the Weather History Date:

Friday, November 9, 2012

  Actual Average Record
Temperature  
Mean Temperature 36 °F 38 °F  
Max Temperature 38 °F 51 °F 75 °F (2001)
Min Temperature 33 °F 24 °F 1 °F (1966)
Degree Days  
Heating Degree Days 29 27  
Month to date heating degree days 212 227  
Since 1 July heating degree days 882 929  
Cooling Degree Days 0 0  
Month to date cooling degree days 0 0  
Year to date cooling degree days 1303 821  
Moisture  
Dew Point 35 °F    
Average Humidity 96    
Maximum Humidity 100    
Minimum Humidity 92    
Precipitation  
Precipitation 0.00 in 0.03 in 0.67 in (1919)
Month to date precipitation 0.01 0.24  
Year to date precipitation 9.93 19.24  
Snow  
Snow 0.00 in 0.20 in 7.80 in (1919)
Month to date snowfall 0.0 1.5  
Since 1 July snowfall 3.0 3.7  
Since 1 September snowfall 3.0 3.7  
Snow Depth 0.00 in    
Sea Level Pressure  
Sea Level Pressure 29.83 in    
Wind  
Wind Speed 9 mph (ENE)    
Max Wind Speed 15 mph    
Max Gust Speed 18 mph    
Visibility 2 miles    
Events Fog    
T = Trace of Precipitation, MM = Missing Value Source: NWS Daily Summary

Daily Weather History Graph

Daily Weather History Graph

Search for Another Location

Airport:

Trip Planner

Search our weather history database for the weather conditions in past years. The results will help you decide how hot, cold, wet, or windy it might be!

Date:

Astronomy

Nov. 09, 2012 Rise Set
Actual Time 7:27 AM CST 5:24 PM CST
Civil Twilight 6:57 AM CST 5:54 PM CST
Nautical Twilight 6:23 AM CST 6:28 PM CST
Astronomical Twilight 5:50 AM CST 7:01 PM CST
Moon 2:21 AM CST (11/9) 2:44 PM CST (11/9)
Length of Visible Light 10h 57m
Length of Day
9h 57m
Waning Crescent, 23% of the Moon is Illuminated
Nov 9
Waning Crescent
Nov 13
New
Nov 20
First Quarter
Nov 28
Full
Dec 6
Last Quarter

Hourly Weather History & Observations

Time (CST) Temp. Windchill Dew Point Humidity Pressure Visibility Wind Dir Wind Speed Gust Speed Precip Events Conditions
12:52 AM 34.0 °F 28.8 °F 34.0 °F 100% 29.99 in 0.5 mi NNE 5.8 mph - N/A Fog Fog
1:52 AM 35.1 °F 26.9 °F 34.0 °F 96% 29.96 in 0.5 mi NE 11.5 mph - N/A Fog Fog
2:32 AM 35.6 °F 28.0 °F 33.8 °F 93% 29.93 in 1.0 mi NE 10.4 mph - N/A   Overcast
2:52 AM 35.1 °F 29.3 °F 34.0 °F 96% 29.96 in 1.2 mi NE 6.9 mph - N/A   Overcast
3:38 AM 33.8 °F 27.0 °F 33.8 °F 100% 29.92 in 2.5 mi ENE 8.1 mph - N/A   Overcast
3:52 AM 34.0 °F 26.6 °F 33.1 °F 96% 29.95 in 2.5 mi East 9.2 mph - N/A   Overcast
4:52 AM 34.0 °F 26.0 °F 33.1 °F 96% 29.95 in 2.5 mi ENE 10.4 mph - N/A   Overcast
5:08 AM 33.8 °F 25.3 °F 33.8 °F 100% 29.91 in 4.0 mi ENE 11.5 mph - N/A   Overcast
5:52 AM 34.0 °F 25.0 °F 33.1 °F 96% 29.95 in 3.0 mi ENE 12.7 mph - N/A   Overcast
6:02 AM 33.8 °F 24.8 °F 32.0 °F 93% 29.90 in 2.5 mi ENE 12.7 mph - N/A   Overcast
6:32 AM 33.8 °F 24.3 °F 33.8 °F 100% 29.90 in 1.8 mi ENE 13.8 mph - N/A   Overcast
6:52 AM 34.0 °F 25.0 °F 33.1 °F 96% 29.94 in 1.8 mi East 12.7 mph - N/A   Overcast
7:17 AM 33.8 °F 24.8 °F 32.0 °F 93% 29.89 in 2.5 mi East 12.7 mph - N/A   Overcast
7:31 AM 33.8 °F 25.8 °F 33.8 °F 100% 29.89 in 1.5 mi East 10.4 mph - N/A   Overcast
7:45 AM 33.8 °F 25.3 °F 33.8 °F 100% 29.88 in 2.0 mi East 11.5 mph - N/A   Overcast
7:52 AM 34.0 °F 25.0 °F 33.1 °F 96% 29.95 in 1.8 mi East 12.7 mph - N/A   Overcast
8:39 AM 33.8 °F 24.3 °F 33.8 °F 100% 29.89 in 1.0 mi East 13.8 mph - N/A   Overcast
8:48 AM 33.8 °F 24.8 °F 32.0 °F 93% 29.88 in 1.2 mi East 12.7 mph - N/A   Overcast
8:52 AM 33.1 °F 24.4 °F 32.0 °F 96% 29.96 in 1.2 mi East 11.5 mph - N/A   Overcast
9:00 AM 33.8 °F 26.4 °F 33.8 °F 100% 29.89 in 0.8 mi East 9.2 mph - N/A   Overcast
9:44 AM 33.8 °F 25.8 °F 33.8 °F 100% 29.88 in 1.2 mi East 10.4 mph - N/A   Overcast
9:52 AM 34.0 °F 26.6 °F 33.1 °F 96% 29.95 in 1.8 mi East 9.2 mph - N/A   Overcast
10:07 AM 33.8 °F 27.7 °F 33.8 °F 100% 29.88 in 2.0 mi East 6.9 mph - N/A   Overcast
10:15 AM 33.8 °F 27.7 °F 33.8 °F 100% 29.88 in 1.8 mi East 6.9 mph - N/A   Overcast
10:30 AM 33.8 °F 27.7 °F 33.8 °F 100% 29.88 in 1.0 mi East 6.9 mph - N/A   Overcast
10:47 AM 33.8 °F 27.0 °F 33.8 °F 100% 29.86 in 1.8 mi East 8.1 mph - N/A   Overcast
10:52 AM 34.0 °F 26.6 °F 33.1 °F 96% 29.92 in 2.0 mi East 9.2 mph - N/A   Overcast
11:27 AM 35.6 °F 29.2 °F 33.8 °F 93% 29.85 in 1.2 mi East 8.1 mph - N/A   Overcast
11:52 AM 35.1 °F 27.9 °F 34.0 °F 96% 29.89 in 1.8 mi East 9.2 mph - N/A   Overcast
12:45 PM 35.6 °F 29.2 °F 35.6 °F 100% 29.79 in 2.0 mi East 8.1 mph - N/A   Overcast
12:52 PM 36.0 °F 30.3 °F 35.1 °F 97% 29.85 in 2.5 mi East 6.9 mph - N/A   Overcast
1:09 PM 35.6 °F 30.7 °F 35.6 °F 100% 29.78 in 1.2 mi East 5.8 mph - N/A   Overcast
1:32 PM 37.4 °F 32.8 °F 35.6 °F 93% 29.77 in 2.0 mi NE 5.8 mph - N/A   Overcast
1:52 PM 37.0 °F 31.6 °F 35.1 °F 93% 29.82 in 2.0 mi NE 6.9 mph - N/A   Overcast
2:26 PM 37.4 °F 31.4 °F 35.6 °F 93% 29.75 in 3.0 mi ENE 8.1 mph - N/A   Overcast
2:33 PM 37.4 °F 32.1 °F 35.6 °F 93% 29.76 in 2.5 mi ENE 6.9 mph - N/A   Overcast
2:52 PM 37.0 °F 32.4 °F 36.0 °F 96% 29.81 in 2.5 mi NE 5.8 mph - N/A   Overcast
3:18 PM 37.4 °F 31.4 °F 35.6 °F 93% 29.75 in 1.2 mi NE 8.1 mph - N/A   Overcast
3:52 PM 37.0 °F 29.8 °F 36.0 °F 96% 29.80 in 1.2 mi NE 10.4 mph - N/A   Overcast
4:05 PM 37.4 °F 30.3 °F 35.6 °F 93% 29.74 in 1.0 mi ENE 10.4 mph - N/A   Overcast
4:15 PM 37.4 °F 30.3 °F 35.6 °F 93% 29.74 in 1.8 mi ENE 10.4 mph - N/A   Overcast
4:27 PM 37.4 °F 30.3 °F 35.6 °F 93% 29.74 in 0.8 mi ENE 10.4 mph - N/A   Overcast
4:52 PM 37.0 °F 29.8 °F 36.0 °F 96% 29.79 in 0.5 mi NE 10.4 mph - N/A Fog Fog
5:10 PM 37.4 °F 30.3 °F 35.6 °F 93% 29.74 in 1.0 mi ENE 10.4 mph - N/A   Overcast
5:18 PM 37.4 °F 30.3 °F 35.6 °F 93% 29.74 in 0.5 mi NE 10.4 mph - N/A Fog Fog
5:52 PM 37.0 °F 29.8 °F 36.0 °F 96% 29.80 in 0.8 mi East 10.4 mph - N/A   Mist
6:25 PM 37.4 °F 32.1 °F 35.6 °F 93% 29.74 in 1.0 mi ENE 6.9 mph - N/A   Overcast
6:36 PM 37.4 °F 31.4 °F 35.6 °F 93% 29.74 in 0.8 mi East 8.1 mph - N/A   Overcast
6:52 PM 37.0 °F 30.4 °F 36.0 °F 96% 29.80 in 0.5 mi East 9.2 mph - N/A Fog Fog
7:52 PM 37.0 °F 31.0 °F 36.0 °F 96% 29.77 in 0.5 mi East 8.1 mph - N/A Fog Fog
8:52 PM 37.0 °F 32.4 °F 37.0 °F 100% 29.75 in 0.5 mi East 5.8 mph - N/A Fog Fog
9:28 PM 37.4 °F 34.9 °F 37.4 °F 100% 29.69 in 1.0 mi East 3.5 mph - N/A   Overcast
9:52 PM 37.0 °F 33.3 °F 37.0 °F 100% 29.74 in 1.5 mi East 4.6 mph - N/A   Overcast
10:06 PM 37.4 °F 34.9 °F 37.4 °F 100% 29.67 in 2.0 mi East 3.5 mph - N/A   Overcast
10:14 PM 37.4 °F 33.8 °F 37.4 °F 100% 29.67 in 1.5 mi East 4.6 mph - N/A   Overcast
10:27 PM 37.4 °F 33.8 °F 37.4 °F 100% 29.67 in 2.5 mi East 4.6 mph - N/A   Overcast
10:40 PM 37.4 °F 32.8 °F 37.4 °F 100% 29.67 in 3.0 mi SE 5.8 mph - N/A   Overcast
10:52 PM 37.0 °F 32.4 °F 36.0 °F 96% 29.72 in 4.0 mi SE 5.8 mph - N/A   Overcast
11:13 PM 37.4 °F - 35.6 °F 93% 29.66 in 5.0 mi Calm Calm - N/A   Overcast
11:52 PM 37.0 °F - 36.0 °F 96% 29.70 in 5.0 mi Calm Calm - N/A   Overcast